Location: Bennemühlen
(52.5740°N, 9.7135°E)
Time: 21:08:44
(UTC+00:00)

Vanguard 2 Rocket - Pass Details

Date: 25 February 2026
Orbit: 553 x 3286 km, 32.9° (Epoch: 8 March)

Event Time Altitude Azimuth Distance (km) Brightness Sun altitude
Rises 08:07:39 0° 201° (SSW) 6,714 11.5 14.3°
Reaches altitude 10° 08:13:23 10° 189° (S) 5,980 11.5 15.0°
Maximum altitude 08:26:35 23° 146° (SE) 5,152 12.7 16.6°
Drops below altitude 10° 08:39:32 10° 103° (ESE) 5,913 12.2 18.0°
Sets 08:45:04 0° 91° (E) 6,631 12.0 18.6°
